User: anonymous   Login
Location: Unspecified
(0.0000°N, 0.0000°E)
Time: 10:58:26
(UTC+00:00)
Language:

SEEDS - Orbit

View from above orbital plane
View from above orbital plane
View from above satellite
View from above satellite

Ground track
Ground track

The orbit data is extracted from the following two-line orbital elements,

1 32791U 08021J   21335.20785682  .00001083  00000-0  11287-3 0  9999
2 32791  97.5898 313.5108 0014272 126.5012 233.7524 14.91676691737715
Epoch (UTC): 01 December 2021 04:59:18
Eccentricity: 0.0014272
inclination: 97.5898°
perigee height: 583 km
apogee height: 602 km
right ascension of ascending node: 313.5108°
argument of perigee: 126.5012°
revolutions per day: 14.91676691
mean anomaly at epoch: 233.7524°
orbit number at epoch: 73771

The dashed part of the orbit path shows where the satellite is in the earth's shadow,  

DLR